PDT,Max TemperatureF,Mean TemperatureF,Min TemperatureF,Max Dew PointF,MeanDew PointF,Min DewpointF,Max Humidity, Mean Humidity, Min Humidity, Max Sea Level PressureIn, Mean Sea Level PressureIn, Min Sea Level PressureIn, Max VisibilityMiles, Mean VisibilityMiles, Min VisibilityMiles, Max Wind SpeedMPH, Mean Wind SpeedMPH, Max Gust SpeedMPH,PrecipitationIn, CloudCover, Events, WindDirDegrees
2013-9-1,93,71,49,57,48,41,69,43,17,29.88,29.80,29.68,10,10,10,12,6,,0.00,0,,281
2013-9-2,89,78,66,57,52,42,61,41,21,29.86,29.78,29.74,10,10,10,16,9,32,0.00,0,,359
2013-9-3,87,76,65,56,54,52,68,50,32,29.93,29.87,29.83,10,10,10,20,9,24,0.00,2,,321
2013-9-4,88,72,56,57,54,51,67,48,28,29.96,29.91,29.84,10,10,10,14,7,,0.00,2,,292
2013-9-5,77,70,62,65,58,54,94,61,39,29.96,29.89,29.79,10,10,7,17,9,24,0.38,6,Rain,289
2013-9-6,69,64,59,58,56,51,90,73,55,30.10,30.01,29.89,10,10,10,15,4,18,0.01,4,,182
2013-9-7,68,59,49,59,56,55,94,84,68,30.11,30.08,30.03,10,9,2,7,2,,0.06,7,Rain,265
2013-9-8,75,62,49,57,54,53,93,65,43,30.07,30.00,29.91,10,10,10,15,7,,T,0,,297
2013-9-9,82,65,48,54,52,49,65,49,33,29.97,29.92,29.86,10,10,10,9,7,,0.00,0,,336
2013-9-10,86,69,51,53,52,48,78,50,26,30.03,29.96,29.91,10,10,10,14,5,,0.00,0,,288
2013-9-11,90,73,56,70,52,46,72,46,22,30.06,30.00,29.93,10,10,10,10,7,,0.00,0,,277
2013-9-12,90,72,53,53,50,46,65,42,19,30.00,29.91,29.81,10,10,9,12,7,25,0.00,0,,283
2013-9-13,91,72,52,55,52,43,65,41,17,29.83,29.76,29.67,10,10,8,13,6,,0.00,0,,283
2013-9-14,90,72,54,56,53,49,70,44,23,29.84,29.77,29.73,10,10,10,13,7,,0.00,0,,283
2013-9-15,88,72,56,58,52,45,78,46,24,29.79,29.70,29.56,10,10,8,29,7,36,0.03,2,Rain-Thunderstorm,277
2013-9-16,72,62,51,58,51,46,84,57,35,29.82,29.79,29.72,10,10,10,17,6,,T,0,,300
2013-9-17,70,57,43,49,45,41,69,53,38,29.81,29.75,29.68,10,10,10,20,8,29,0.09,1,,302
2013-9-18,73,64,54,40,38,35,55,41,27,30.04,29.93,29.82,10,10,10,24,13,30,0.00,0,,300
2013-9-19,70,55,39,43,40,38,71,51,30,30.10,30.01,29.89,10,10,10,13,7,,0.00,0,,323
2013-9-20,79,60,41,44,40,37,68,47,26,29.88,29.70,29.55,10,10,10,14,7,,0.00,0,,292
2013-9-21,66,55,43,47,42,36,65,43,25,29.63,29.59,29.55,10,10,10,17,10,21,T,2,Rain,306
2013-9-22,63,53,42,50,44,38,90,65,37,29.71,29.64,29.58,10,10,10,13,5,17,0.09,3,Rain,338
2013-9-23,61,53,45,46,43,38,90,65,40,29.91,29.85,29.72,10,10,10,13,4,17,0.00,6,,205
2013-9-24,65,58,50,42,36,29,66,46,26,29.89,29.81,29.74,10,10,10,18,9,24,0.00,1,,309
2013-9-25,55,45,35,41,36,29,77,49,24,29.93,29.83,29.78,10,10,10,14,8,17,0.03,5,Rain,302
2013-9-26,63,51,39,40,37,30,68,51,27,30.06,30.01,29.94,10,10,10,13,7,17,0.00,5,,299
2013-9-27,52,45,37,44,40,35,83,65,53,30.04,29.96,29.87,10,10,10,13,6,,0.07,4,Rain,304
2013-9-28,57,52,47,52,47,40,94,80,52,29.85,29.60,29.37,10,9,3,18,3,29,0.65,7,Rain,296
2013-9-29,55,50,44,47,40,37,86,58,41,29.57,29.48,29.31,10,10,10,23,11,32,0.18,5,,125
2013-9-30,57,50,42,44,37,32,83,63,42,29.90,29.69,29.40,10,10,10,25,14,32,0.06,2,Rain,296